Mumbai, India

11:59 PM IST on August 18, 2017 (GMT +0530)
Chhatrapati Shivaji International

Weather History for VABB - October, 2011

Change the Weather History Date:

Sunday, October 9, 2011

  Actual Average Record
Temperature  
Mean Temperature 86 °F -  
Max Temperature 95 °F 89 °F 98 °F (1997)
Min Temperature 78 °F 75 °F 74 °F (2016)
Cooling Degree Days 22    
Growing Degree Days 36 (Base 50)    
Moisture  
Dew Point 77 °F    
Average Humidity 76    
Maximum Humidity 91    
Minimum Humidity 46    
Precipitation  
Precipitation 0.00 in - - ()
Sea Level Pressure  
Sea Level Pressure 29.84 in    
Wind  
Wind Speed 4 mph ()    
Max Wind Speed 14 mph    
Max Gust Speed -    
Visibility 1.8 miles    
Events      
Averages and records for this station are not official NWS values.
T = Trace of Precipitation, MM = Missing Value Source: Averaged Metar Reports

Daily Weather History Graph

Daily Weather History Graph

Search for Another Location

Airport or City:

Trip Planner

Search our weather history database for the weather conditions in past years. The results will help you decide how hot, cold, wet, or windy it might be!

Date:

Astronomy

Oct. 09, 2011 Rise Set
Actual Time 6:30 AM IST 6:20 PM IST
Civil Twilight 6:09 AM IST 6:42 PM IST
Nautical Twilight 5:43 AM IST 7:08 PM IST
Astronomical Twilight 5:18 AM IST 7:33 PM IST
Moon 4:33 PM IST (10/9) 4:07 AM IST (10/9)
Length of Visible Light 12h 33m
Length of Day
11h 49m
Waxing Gibbous, 93% of the Moon is Illuminated
Oct 9
Waxing Gibbous
Oct 12
Full
Oct 20
Last Quarter
Oct 27
New
Nov 2
First Quarter

Hourly Weather History & Observations

Time (IST) Temp. Heat Index Dew Point Humidity Pressure Visibility Wind Dir Wind Speed Gust Speed Precip Events Conditions
12:10 AM 82.4 °F 92.4 °F 78.8 °F 89% 29.86 in 1.6 mi East 5.8 mph - N/A   Haze
12:40 AM 82.4 °F 92.4 °F 78.8 °F 89% 29.86 in 1.7 mi East 5.8 mph - N/A   Haze
1:10 AM 82.4 °F 92.4 °F 78.8 °F 89% 29.86 in 1.7 mi Calm Calm - N/A   Haze
2:10 AM 80.6 °F 87.1 °F 77.0 °F 89% 29.86 in 1.9 mi SW 5.8 mph - N/A   Haze
2:30 AM 81 °F - 76 °F 82% 29.85 in 1 mi Calm Calm - -   Haze
2:40 AM 82.4 °F 90.9 °F 77.0 °F 84% 29.86 in 1.9 mi SW 5.8 mph - N/A   Haze
3:10 AM 82.4 °F 90.9 °F 77.0 °F 84% 29.83 in 1.7 mi SW 4.6 mph - N/A   Haze
3:40 AM 82.4 °F 90.9 °F 77.0 °F 84% 29.83 in 1.6 mi Calm Calm - N/A   Haze
4:10 AM 82.4 °F 92.4 °F 78.8 °F 89% 29.83 in 1.5 mi Calm Calm - N/A   Haze
4:40 AM 82.4 °F 92.4 °F 78.8 °F 89% 29.83 in 1.4 mi Calm Calm - N/A   Haze
5:10 AM 82.4 °F 92.4 °F 78.8 °F 89% 29.83 in 1.2 mi Calm Calm - N/A   Haze
5:30 AM 79 °F - 77 °F 91% 29.87 in 1 mi Calm Calm - -   Haze
5:40 AM 82.4 °F 92.4 °F 78.8 °F 89% 29.83 in 1.2 mi Calm Calm - N/A   Mostly Cloudy
6:10 AM 82.4 °F 92.4 °F 78.8 °F 89% 29.86 in 1.1 mi Calm Calm - N/A   Mostly Cloudy
7:40 AM 82.4 °F 92.4 °F 78.8 °F 89% 29.89 in 0.7 mi Calm Calm - N/A   Mostly Cloudy
8:30 AM 82 °F - 77 °F 82% 29.89 in 1 mi ENE 3.5 mph - -   Haze
8:40 AM 82.4 °F 90.9 °F 77.0 °F 84% 29.89 in 1.2 mi ENE 8.1 mph - N/A   Haze
9:10 AM 84.2 °F 94.1 °F 77.0 °F 79% 29.89 in 1.5 mi NE 6.9 mph - N/A   Haze
9:40 AM 86.0 °F 96.9 °F 77.0 °F 74% 29.89 in 1.7 mi NE 3.5 mph - N/A   Haze
10:40 AM 89.6 °F 99.8 °F 75.2 °F 62% 29.89 in - NE 8.1 mph - N/A   Smoke
11:10 AM 89.6 °F 98.2 °F 73.4 °F 59% 29.89 in 2.5 mi North 6.9 mph - N/A   Smoke
11:30 AM 90 °F - 74 °F 50% 29.88 in 1 mi NE 3.5 mph - -   Smoke
11:40 AM 91.4 °F 100.1 °F 73.4 °F 55% 29.86 in 2.8 mi North 5.8 mph - N/A   Smoke
12:10 PM 91.4 °F 100.1 °F 73.4 °F 55% 29.86 in 2.8 mi NW 8.1 mph - N/A   Smoke
12:40 PM 93.2 °F 100.5 °F 71.6 °F 49% 29.86 in 2.8 mi North 6.9 mph - N/A   Smoke
1:10 PM 93.2 °F 98.8 °F 69.8 °F 46% 29.83 in 2.5 mi NNW 5.8 mph - N/A   Smoke
1:40 PM 91.4 °F 105.1 °F 77.0 °F 63% 29.80 in - WNW 13.8 mph - N/A   Smoke
2:10 PM 91.4 °F 105.1 °F 77.0 °F 63% 29.80 in 2.5 mi NW 9.2 mph - N/A   Smoke
2:40 PM 91.4 °F 105.1 °F 77.0 °F 63% 29.77 in 2.5 mi West 12.7 mph - N/A   Smoke
3:10 PM 91.4 °F 105.1 °F 77.0 °F 63% 29.77 in 2.5 mi NW 10.4 mph - N/A   Smoke
3:40 PM 91.4 °F 105.1 °F 77.0 °F 63% 29.77 in 2.5 mi NNW 12.7 mph - N/A   Smoke
4:10 PM 89.6 °F 102.2 °F 77.0 °F 66% 29.77 in 2.5 mi WNW 12.7 mph - N/A   Smoke
4:40 PM 87.8 °F 99.7 °F 77.0 °F 70% 29.77 in 2.2 mi NW 9.2 mph - N/A   Smoke
5:10 PM 87.8 °F 99.7 °F 77.0 °F 70% 29.77 in 2.2 mi NW 8.1 mph - N/A   Smoke
5:30 PM 88 °F - 76 °F 61% 29.77 in 1 mi NW 5.8 mph - -   Smoke
5:40 PM 87.8 °F 99.7 °F 77.0 °F 70% 29.77 in 2.2 mi WNW 8.1 mph - N/A   Smoke
6:10 PM 87.8 °F 102.5 °F 78.8 °F 75% 29.77 in 2.2 mi NNW 9.2 mph - N/A   Smoke
6:40 PM 86.0 °F 99.3 °F 78.8 °F 79% 29.80 in 2.2 mi NW 5.8 mph - N/A   Smoke
7:10 PM 86.0 °F 99.3 °F 78.8 °F 79% 29.80 in - NW 4.6 mph - N/A   Haze
7:40 PM 86.0 °F 99.3 °F 78.8 °F 79% 29.83 in - NW 4.6 mph - N/A   Haze
8:10 PM 86.0 °F 99.3 °F 78.8 °F 79% 29.83 in - Calm Calm - N/A   Haze
8:40 PM 86.0 °F 99.3 °F 78.8 °F 79% 29.83 in - North 5.8 mph - N/A   Haze
9:10 PM 86.0 °F 99.3 °F 78.8 °F 79% 29.86 in - Calm Calm - N/A   Haze
9:40 PM 84.2 °F 96.1 °F 78.8 °F 84% 29.86 in - Calm Calm - N/A   Haze
10:10 PM 84.2 °F 96.1 °F 78.8 °F 84% 29.86 in - Calm Calm - N/A   Haze
11:10 PM 84.2 °F 96.1 °F 78.8 °F 84% 29.86 in 1.9 mi NW 3.5 mph - N/A   Haze
11:30 PM 83 °F - 78 °F 82% 29.85 in 1 mi Calm Calm - -   Haze
11:40 PM 84.2 °F 96.1 °F 78.8 °F 84% 29.86 in 1.9 mi Calm Calm - N/A   Haze